Location: Camp Crooked Creek
(37.9149°N, 85.6607°W)
Time: 11:54:56
(UTC-04:00)

Daily predictions for brighter satellites

Satellite Brightness Start Highest point End
(mag) Time Altitude Azimuth Time Altitude Azimuth Time Altitude Azimuth
CZ-3B R/B 3.8 21:32:10 10° S 21:34:33 37° ESE 21:40:28 10° NE
H-2A R/B 4.2 21:39:09 10° E 21:41:15 12° ENE 21:43:22 10° NE
GPS 2-05 Rocket1 3.5 21:38:50 10° SW 21:41:33 28° SSE 21:44:16 10° E
Cosmos 1076 Rocket 4.0 21:37:36 10° SSE 21:41:41 41° E 21:45:47 10° NNE
SL-19 R/B 4.3 21:36:49 10° SSE 21:42:29 79° ENE 21:48:03 10° NNW
Cosmos 2173 Rocket 4.5 21:40:30 10° N 21:46:23 44° ENE 21:52:18 10° SSE
Lacrosse 5 2.8 21:42:05 10° NNW 21:46:48 37° NE 21:51:29 10° ESE
Cosmos 1818 3.6 21:42:12 10° NNW 21:47:41 89° ENE 21:53:06 10° SSE
Atlas Centaur 2 3.1 21:49:01 10° WSW 21:51:31 16° SSW 21:53:52 10° SSE
Cosmos 2061 Rocket 4.5 21:47:03 10° N 21:53:11 47° ENE 21:59:20 10° SSE
Abrixas rocket 4.2 21:50:55 10° NW 21:53:35 22° NNE 21:56:13 10° ENE
Cosmos 1408 Rocket 4.2 21:50:26 10° SSE 21:54:19 35° E 21:58:15 10° NNE
YAOGAN 6 2.8 21:52:34 10° SSE 21:56:07 54° ENE 21:59:44 10° N
BREEZE-M DEB (TANK) 4.4 21:58:03 10° NW 21:59:20 14° N 22:01:03 10° NNE
Cosmos 2221 2.5 21:55:35 10° N 22:00:00 86° E 22:04:23 10° S
Cosmos 2227 4.2 21:54:50 10° S 22:00:30 65° ESE 22:06:09 10° NNE
Envisat 3.4 21:56:03 10° S 22:01:04 66° WSW 22:06:08 10° NNW
Meteor 1-29 2.9 22:03:30 10° NNE 22:06:58 89° W 22:10:25 10° SSW
Cosmos 1726 3.2 22:05:24 10° NNE 22:08:36 27° ENE 22:10:46 16° SE
Terra 4.1 22:13:44 10° ENE 22:14:16 10° ENE 22:14:49 10° NE
Tiangong 1 2.5 22:13:03 10° WNW 22:15:36 30° N 22:18:07 10° ENE
Cosmos 2263 Rocket 3.0 22:11:14 10° SSE 22:15:54 28° ESE 22:20:35 10° NE
ATLAS 5 CENTAUR R/B 4.1 22:11:56 10° WSW 22:16:01 29° NW 22:20:24 10° NNE
Cosmos 332 Rocket 4.4 22:11:31 10° N 22:16:12 43° ENE 22:19:40 17° SE
Cosmos 1802 Rocket 4.0 22:10:47 10° N 22:16:54 67° E 22:22:46 11° SSE
OAO 1 Rocket 4.5 22:12:30 10° W 22:17:49 66° S 22:22:42 12° E
Cosmos 2208 Rocket 4.4 22:14:39 10° NNW 22:19:58 66° WSW 22:25:18 10° S
Abrixas 2.0 22:17:19 10° SW 22:19:59 71° SE 22:22:41 10° ENE
Helios 1B rocket 3.4 22:16:17 10° N 22:20:18 50° WNW 22:24:17 10° SSW
Cosmos 1300 3.5 22:20:56 10° NNE 22:24:27 33° ENE 22:26:18 21° SE
SAR-Lupe-4 4.5 22:28:12 10° S 22:31:39 45° W 22:35:06 10° NNW
Cosmos 1766 Rocket 3.7 22:29:17 10° SSW 22:33:36 74° W 22:37:57 10° N
SPOT 1/Viking Rocket 4.3 22:33:04 20° SE 22:36:02 38° ENE 22:40:45 10° N
USA 234 3.4 22:29:50 10° NE 22:36:08 48° SE 22:42:24 10° SSW
Cosmos 1328 Rocket 3.8 22:33:39 10° N 22:37:52 50° E 22:40:04 25° SE
Cosmos 2016 Rocket 3.9 22:31:40 10° N 22:37:56 83° E 22:43:03 16° S
Cosmos 1151 Rocket 4.2 22:34:10 10° NNE 22:37:57 28° ENE 22:39:31 22° ESE
SL-14 R/B 3.3 22:36:06 19° S 22:38:47 62° E 22:42:40 10° NNE
Cosmos 1242 Rocket 4.1 22:39:31 10° NNW 22:42:55 34° W 22:46:16 10° SSW
MetOp-A 4.1 22:39:46 18° SSE 22:43:49 90° ESE 22:49:13 10° NNW
CZ-4C R/B 3.7 22:46:15 15° E 22:46:15 15° E 22:48:34 10° ENE
ERS-1 Rocket 3.2 22:41:50 15° S 22:45:58 68° WSW 22:51:01 10° NNW
Cosmos 1515 Rocket 4.0 22:42:06 10° N 22:46:16 44° E 22:47:59 29° SE
Cosmos 468 Rocket 4.0 22:42:12 10° NNW 22:47:19 76° WSW 22:50:42 22° S
Delta 2 Rocket 4.1 22:41:49 10° WSW 22:47:25 63° S 22:52:25 14° E
H-2A R/B 4.0 22:47:34 14° E 22:48:47 15° ENE 22:51:15 10° NNE
Cosmos 1743 Rocket 3.4 22:46:32 21° S 22:49:21 72° E 22:53:39 10° NNE
EO 1 Delta rocket 4.0 22:47:12 26° SE 22:49:35 55° ENE 22:54:08 10° N
USA 245 3.2 22:48:40 33° SSE 22:50:08 71° ENE 22:54:28 10° N
ARGOS 3.1 22:46:39 22° SSE 22:50:13 80° ENE 22:55:40 10° N
Cosmos 2058 3.6 22:50:47 31° SE 22:51:56 38° E 22:55:50 10° NNE
Cosmos 1603 3.8 22:46:25 10° NNW 22:52:04 73° WSW 22:55:40 23° S
Cosmos 1328 3.7 22:49:33 20° S 22:52:18 90° S 22:56:21 10° N
RESURS DK-1 2.7 22:48:24 10° NNW 22:52:31 61° WSW 22:54:38 27° S
Cosmos 1455 4.0 22:54:24 10° NNE 22:57:05 18° ENE 22:57:20 18° E
YAOGAN 11 4.1 22:55:56 28° SSE 22:58:17 89° ENE 23:02:52 10° NNW
Cosmos 2233 Rocket 4.2 22:55:07 10° N 23:01:11 53° E 23:04:08 29° SE
Cosmos 1503 Rocket 4.2 23:00:28 29° SSE 23:02:45 49° ESE 23:07:43 10° NNE
Meteor 2-2 Rocket 4.4 22:58:23 10° NNW 23:04:12 75° W 23:08:08 22° S
Nimbus 7 Rocket 4.3 22:58:21 10° NNE 23:04:23 75° ESE 23:08:52 18° S
Cosmos 1943 3.2 22:59:22 10° NNW 23:05:02 71° ENE 23:07:41 32° SE
Cosmos 2228 Rocket 3.1 23:00:30 10° N 23:05:07 84° W 23:07:15 31° S
Cosmos 371 Rocket 3.3 23:00:18 10° NNW 23:05:07 76° WSW 23:07:24 31° S
ERBS 2.6 23:15:05 10° NW 23:18:24 53° SW 23:18:29 53° SW
GPS 2-05 Rocket1 3.9 23:15:59 10° WSW 23:17:47 30° WSW 23:17:47 30° WSW
H-2A R/B 2.1 23:17:24 34° S 23:19:50 85° WSW 23:25:19 10° NNW
Cosmos 1447 Rocket 4.5 23:18:48 26° S 23:22:38 84° E 23:29:01 10° N
SPOT 5 3.6 23:24:13 26° SSW 23:26:38 49° W 23:31:35 10° NNW
SL-08 RB Rocket 4.4 23:25:51 30° SSW 23:27:46 49° W 23:32:15 10° NNW
H-2A ROCKET BODY 3.3 23:23:59 10° SW 23:28:07 38° SSE 23:42:56 10° E
Sich 1 4.4 23:28:52 24° ENE 23:28:52 24° ENE 23:31:45 10° NE
Cosmos 2151 3.3 23:27:50 33° SSW 23:29:35 63° W 23:33:52 10° N
Lacrosse 5 2.9 23:25:08 10° WNW 23:29:43 35° WSW 23:31:05 29° SSW
Abrixas rocket 2.8 23:27:19 10° WNW 23:29:56 49° W 23:29:56 49° W
Landsat 7 3.8 23:35:07 50° S 23:36:21 81° WSW 23:41:09 10° NNW
Cosmos 1626 2.4 23:38:04 56° WSW 23:38:30 62° W 23:42:13 10° N
Cosmos 1703 3.5 23:39:14 53° SW 23:39:56 65° W 23:43:55 10° N
SL-19 R/B 4.2 23:37:42 10° NNE 23:43:07 70° ESE 23:44:40 48° SSE
Cosmos 1707 Rocket 4.1 23:44:03 10° N 23:48:18 45° ENE 23:48:18 45° ENE
Cosmos 1354 Rocket 4.4 23:45:33 24° SW 23:48:40 60° WNW 23:53:52 10° N
deb Chang Zheng 4 3.5 23:44:55 10° NNE 23:49:18 68° ESE 23:49:18 68° ESE
Cosmos 2278 Rocket 4.3 23:51:08 12° E 23:51:08 12° E 23:52:09 10° ENE
Terra 1.7 23:50:32 63° S 23:51:17 82° WSW 23:56:04 10° NNW
Tiangong 1 3.3 23:48:35 10° WNW 23:49:35 20° WNW 23:49:35 20° WNW
